Location: Unspecified
(33.1972°N, 0.0000°E)
Time: 02:56:58
(UTC+00:00)

ISS - Visible Passes

Search period start: 23 November 2019 00:00
Search period end: 03 December 2019 00:00
Orbit: 412 x 421 km, 51.6° (Epoch: 23 November)

Date Brightness Start Highest point End Pass type
(mag) Time Alt. Az. Time Alt. Az. Time Alt. Az.
23 Nov -1.7 18:12:09 10° W 18:14:49 21° NW 18:16:34 15° N visible
24 Nov -2.5 17:23:09 10° WSW 17:26:16 36° NW 17:29:25 10° NNE visible
26 Nov -1.2 17:24:22 10° WNW 17:26:21 15° NNW 17:28:21 10° N visible
